Powrót do katalogu

STARLINK-11724

AktywnyŁącznośćVLEO
NORAD 64124·PAYLOAD·🇺🇸 United States

Wystrzelony May 24, 2025 z Cape Canaveral Space Force Station

Loading…

Następne Przeloty (najbliższe 24 godziny)

TLE

ŚwieżeSource: CelesTrak SupGP

Epoka: Sep 14, 2026, 23:10 UTC

1 64124C 25111B   26257.96576389  .00055456  00000+0  43087-3 0  2578
2 64124  43.0001 272.8244 0001417 267.8194 277.8175 15.70803261    17

Śledź STARLINK-11724 w czasie rzeczywistym z AllMySat

Download on the App Store